673  
ASUS41 KAKQ 172315  
RWRAKQ  
 
REGIONAL WEATHER ROUNDUP  
NATIONAL WEATHER SERVICE WAKEFIELD VA  
700 PM EDT FRI AUG 17 2018  
 
NOTE: "FAIR" INDICATES FEW OR NO CLOUDS BELOW 12,000 FEET WITH NO  
SIGNIFICANT WEATHER AND/OR S TO VISIBILITY
. * = DENOTES  
STATION MAY NOT REPORT PRECIPITATION (E.G., RAIN,SNOW,ETC.),
 
THUNDER OR FOG.  
 
VAZ042-051-052>054-056-180000-  
NORTHERN VIRGINIA  
 
CITY SKY/WX TMP DP RH WIND PRES REMARKS
 
WASH NATIONAL CLOUDY 88 72 58 W10G22 29.98R  
DULLES TSTM 74 70 87 W8 29.98F FOG  
FORT BELVOIR DRIZZLE 84 73 70 W9 29.98R  
QUANTICO FAIR 85 76 74 NW9 29.98R  
FREDERICKSBRG* FAIR 85 78 78 CALM 29.97S HX 97  
STAFFORD* FAIR 82 77 84 NW7 30.02S  
WARRENTON PTSUNNY 76 68 76 W5 30.00F  
CULPEPER* PTSUNNY 76 69 78 N3 30.00F  
MANASSAS* FAIR 79 69 71 VRB3 30.00S  
LEESBURG* LGT RAIN 73 72 94 SW5 29.99F  
WINCHESTER FAIR 73 70 88 SW5 30.01F  
FRONT ROYAL* MOCLDY 72 72 100 SW3 30.01S  
LURAY* NOT AVBL  

 
 
VAZ048-049-060>072-079>083-180000-  
CENTRAL AND SOUTH CENTRAL VIRGINIA  
 
CITY SKY/WX TMP DP RH WIND PRES REMARKS
 
RICHMOND PTSUNNY 89 74 60 S13 29.99F HX 98  
CHESTERFIELD* FAIR 88 74 63 S6 30.00F HX 96  
PETERSBURG* FAIR 87 73 62 S3 30.01S  
HANOVER FAIR 89 73 59 SW8 30.00S HX 97  
TAPPAHANNOCK* FAIR 86 78 78 S3 30.00S HX 98  
QUINTON* FAIR 87 76 69 CALM 29.98F HX 98  
CHARLOTTSVILLE FAIR 88 72 58 S7 29.99S  
GORDONSVILLE* FAIR 87 77 73 CALM 29.99S HX 98  
ORANGE* FAIR 81 73 78 N10G18 30.01R  
LOUISA* FAIR 87 74 66 SW5 30.04S HX 95  
BUMPASS* FAIR 86 76 70 CALM 29.99S HX 96  
FARMVILLE* FAIR 82 75 78 SW3 30.00S  
CREWE* FAIR 85 73 67 CALM 30.01S  
FORT PICKETT* FAIR 85 73 66 S7 30.02S  
CHASE CITY* FAIR 87 73 61 CALM 30.03S  
CLARKSVILLE* FAIR 86 72 62 SW8 30.02S  
SOUTH HILL* FAIR 85 77 78 S5 30.08S HX 95  
LAWRENCEVILLE* FAIR 86 73 65 MISG 30.02S  
EMPORIA* FAIR 88 75 66 CALM 30.03F HX 97  

 
 
VAZ088>098-180000-  
SOUTHEAST VIRGINIA  
 
CITY SKY/WX TMP DP RH WIND PRES REMARKS
 
NORFOLK FAIR 90 73 57 SW14 30.00F HX 98  
VIRGINIA BEACH FAIR 89 71 55 SW13 30.00F HX 95  
NORFOLK NAVAL FAIR 89 73 59 SW9 30.02S HX 97  
WEST POINT* FAIR 87 77 73 S6 30.00F HX 99  
SALUDA* FAIR 86 79 79 S5 29.99S HX 100  
NEWPORT NEWS FAIR 89 74 60 SW12 30.00F HX 98  
LANGLEY AFB FAIR 89 74 61 SW15 30.01S HX 98  
FORT EUSTIS FAIR 88 76 67 SW7 29.98F HX 99  
WILLIAMSBURG* FAIR 90 73 58 S3 30.01S HX 98  
HR EXEC AP* FAIR 87 75 67 SW6 30.02S HX 96  
FRANKLIN* FAIR 88 75 65 SW5 30.02F HX 97  
US460-WAKEFLD FAIR 88 75 65 S5 30.01S HX 97  

 
 
VAZ020-022-025-037-045-180000-  
WEST CENTRAL AND SOUTHWEST VIRGINIA  
 
CITY SKY/WX TMP DP RH WIND PRES REMARKS
 
STAUNTON* FAIR 83 71 67 NE5 30.04S  
WAYNESBORO* FAIR 83 73 71 S7 30.04S  
HOT SPRINGS VA FAIR 75 71 87 SW7 30.20S  
LYNCHBURG FAIR 85 72 65 S8 30.04R  
DANVILLE FAIR 85 73 67 SW7 30.03F  
SOUTH BOSTON* FAIR 86 69 55 SW6 30.02S  
MARTINSVILLE FAIR 84 73 70 S3 30.07F  
ROANOKE PTSUNNY 86 70 58 S12 30.05S  
BLACKSBURG FAIR 82 70 66 S6 30.13R  
DUBLIN* FAIR 82 68 62 S8 30.11S  
MARION* FAIR 82 13 7 SW3 30.14S  
HILLSVILLE* FAIR 76 69 78 S8 30.13F  
RICHLANDS* MOCLDY 78 66 66 SW8 30.13S  
WISE* FAIR 77 68 73 SW7 30.14S  
ABINGDON* FAIR 84 69 59 W6 30.10S  

 
 
MDZ021>025-VAZ099-100-180000-  
SOUTHERN MARYLAND AND THE DELMARVA PENINSULA  
 
CITY SKY/WX TMP DP RH WIND PRES REMARKS
 
PATUXENT RIVER NOT AVBL  
BAY BRIDGE APT FAIR 86 77 74 S8 29.96S HX 97  
LEONARDTOWN FAIR 84 75 74 S3 29.99F  
DOVER MOCLDY 86 72 62 S13 29.95F  
GEORGETOWN FAIR 87 70 56 S9 29.98F  
EASTON MOCLDY 88 75 66 S9 30.00F HX 97  
CAMBRIDGE CLEAR 86 77 74 VRB7 29.97F HX 97  
SALISBURY FAIR 84 76 76 S8 29.99S  
TANGIER FAIR 88 81 79 S10 29.99S HX 105  
OCEAN CITY FAIR 83 75 77 SW10 30.00F  
WALLOPS ISLAND NOT AVBL  
ACCOMACK* FAIR 85 78 80 S5 30.00S HX 96  

 
 
NCZ012>017-030>032-180000-  
NORTH CENTRAL AND EASTERN NORTH CAROLINA  
 
CITY SKY/WX TMP DP RH WIND PRES REMARKS
 
ROANOKE RAPIDS FAIR 86 73 66 CALM 30.03S  
RALEIGH PTSUNNY 86 71 60 W9 30.04F  
ELIZABETH CITY FAIR 89 78 70 S6 30.03F HX 103  
AHOSKIE* FAIR 86 76 72 CALM 30.03S HX 97  
EDENTON* FAIR 87 78 73 S14 30.04S HX 99  
CURRITUCK* FAIR 88 76 67 MISG 30.03S HX 99  
KILL DEVIL HLS FAIR 86 74 67 SW5 30.03F  
MANTEO FAIR 86 75 70 SW16 30.05S HX 95  
CAPE HATTERAS FAIR 83 77 82 SW10 30.08F  
TARBORO* NOT AVBL  
GOLDSBORO NOT AVBL  
WASHINGTON FAIR 86 76 73 S6 30.05S HX 96  
GREENVILLE FAIR 88 72 58 SW6 30.06S HAZE  
NEW BERN FAIR 84 76 76 S9 30.07S  
WILMINGTON FAIR 85 73 67 S15G21 30.08S  

 
 
VAZ048-180000-  
ELSEWHERE  
 
CITY SKY/WX TMP DP RH WIND PRES REMARKS
 
HARRISBURG PA LGT RAIN 74 72 93 CALM 29.93F  
BALTIMORE CLOUDY 87 74 64 SW6 29.95S HX 95  
ANNAPOLIS FAIR 88 79 74 S9 29.95F HX 103  
ANDREWS AFB FAIR 85 73 67 S12 29.97S  
PHILADELPHIA MOCLDY 86 74 67 S9 29.93F  
HENDERSON NC FAIR 84 70 61 SW9 30.04S  
GREENSBORO CLOUDY 84 69 60 SW12 30.05F  
ROCKY MOUNT FAIR 87 74 64 S7 30.04S HX 95  

 
 
VAZ100-180000-  
MARINE  
 
STATION/POSITION TIME TEMP WIND PRES WAVE SWELL
 
AIR SEA DIR/SP/G HT/PER HT/PER  
(UTC) (F) (DEG/KT/KT) (MB) (FT/S) (FT/S)  
BRANDYWINE LGT 2236 79 180/ 16/ 17 1015.3S  
CAPE MAY NJ 2236 81 75 170/ 12/ 15 1014.8F  
LEWES DE 2236 88 76 220/ 6/ 12 1015.3S  
15NM E FENWICK I 2250 83 78 200/ 12/ 14 1016.4F 2/ 8 2/ 8  
OCEAN-CITY-INLET 2236 78 73 210/ 12/ 13 1016.6F  
WACHAPREAGUE VA 2236 85 89 190/ 12/ 16 1015.8F  
THOMAS POINT MD 2300 84 83 170/ 15/ 16 1015.2F  
GOOSES REEF MD 2300 86 83 230/ 6/ 8 1015.0 1  
COVE POINT MD 2236 87 200/ 8/ 9 1015.5F  
SOLOMONS ISLAND 2236 87 85 200/ 5/ 5 1014.7F  
BISHOPS HEAD MD 2236 86 90 180/ 13/ 15 1015.8S  
PINEY POINT MD 2242 200/ 8/ 8 N/A  
POTOMAC MD 2300 86 84 200/ 8/ 8 1014.4 1/ 3  
CAMBRIDGE MD 2236 87 86 1016.2F  
LEWISETTA VA 2236 87 85 210/ 7/ 9 1015.1F  
RAPPAHANNOCK LGT 2248 180/ 12/ 13 1016.4F  
STINGRAY PT 2250 88 240/ 10/ 14 1016.8F  
YORK RVR RNG VA 2236 89 230/ 14/ 16 1016.3F  
YORKTOWN VA 2236 89 85 220/ 7/ 10 1015.4F  
DOMINION TERM VA 2236 89 250/ 9/ 10 1016.4F  
KIPTOPEKE VA 2236 81 170/ 4/ 4 N/A  
CAPE HENRY VA 2248 89 210/ 7/ 9 1014.5F  
WILLOUBY STN VA 2236 89 220/ 12/ 14 1015.5F  
S CRANEY ISL VA 2248 90 220/ 8/ 12 1016.0F  
CAPE HENRY BUOY 2300 78 N/A 2/ 4  
1ST LANDING BUOY 2300 88 240/ 12/ 14 1015.4 1/ 3  
64NM E OF VA BCH 2250 83 84 210/ 16/ 19 1017.5F 3/ 5 2/ 8  
DUCK PIER NC 2236 87 77 210/ 12/ 18 1016.6F  
44100 DUCK FRF 2245 83 N/A 2/ 8  
44056 DUCK FRF 2200 81 N/A 2/ 8  
OREGON INLET NC 2236 84 87 190/ 19/ 22 1017.7F  
HATTERAS NC 2248 81 80 210/ 9/ 13 1018.5F  
DIAMOND SHLS NC 2300 83 83 210/ 19/ 23 1019.0  
CAPE LOOKOUT NC 2300 220/ 12/ 16 1019.2S  

 
 
 
CLICK HERE TO GO TO PREVIOUS BULLETINS.

The Nexlab VA Page
The Nexlab NC Page
The Nexlab MD Page Main Text Page